GW6984 Weather Reports


time (UTC)temp
C
wind
direction
speed
KPH
gust
KPH
rain 1hr
cm
rain 24hr
cm
rain mn
cm
humidity
%
barometer
mb
20260507050954 12 348 3.2 4.8 0.00 0.56 0.56 92 1011.1
20260507050450 12 31 4.8 6.4 0.30 0.56 0.56 92 1010.9
20260507045947 12 13 4.8 4.8 2.29 0.56 0.56 92 1011.2
20260507045444 12 17 4.8 9.7 2.77 0.51 0.51 90 1010.9
20260507044941 13 153 3.2 6.4 0.79 0.13 0.13 88 1011.2
20260507044438 13 357 9.7 11.3 0.18 0.03 0.03 85 1010.8
20260507043934 13 40 1.6 3.2 0.00 0.00 0.00 84 1010.3
20260507043430 14 22 3.2 4.8 0.00 0.00 0.00 83 1010.8
20260507042926 14 51 3.2 6.4 0.00 0.00 0.00 82 1010.7
20260507042424 14 326 6.4 9.7 0.00 0.00 0.00 81 1010.7
20260507041919 14 53 11.3 14.5 0.00 0.00 0.00 80 1010.6
20260507041416 15 354 11.3 16.1 0.00 0.00 0.00 77 1010.7
20260507040914 15 347 4.8 14.5 0.00 0.00 0.00 79 1010.6
20260507040409 15 356 4.8 6.4 0.00 0.00 0.00 82 1010.2
20260507035905 15 339 3.2 6.4 0.00 0.38 0.38 82 1010.2
20260507035401 15 26 1.6 3.2 0.00 0.38 0.38 82 1010.2
20260507034859 15 14 0.0 3.2 0.00 0.38 0.38 82 1010.1
20260507034355 15 45 3.2 6.4 0.00 0.38 0.38 82 1010.1
20260507033853 16 294 3.2 11.3 0.00 0.38 0.38 81 1010.3
20260507033351 16 19 6.4 6.4 0.00 0.38 0.38 81 1010.3
20260507032848 16 311 3.2 11.3 0.00 0.38 0.38 80 1010.4
20260507032345 16 34 4.8 6.4 0.00 0.38 0.38 84 1010.0
20260507031841 16 12 1.6 4.8 0.00 0.38 0.38 85 1010.2
20260507031338 16 0 3.2 14.5 0.00 0.38 0.38 84 1009.9
20260507030834 16 29 3.2 4.8 0.00 0.38 0.38 84 1009.9
20260507030332 16 36 4.8 6.4 0.00 0.38 0.38 84 1009.7
20260507025828 16 355 4.8 11.3 0.00 0.38 0.38 84 1009.8
20260507025326 16 313 6.4 9.7 0.00 0.38 0.38 83 1009.6
20260507024824 17 358 4.8 11.3 0.00 0.38 0.38 83 1009.7
20260507024321 17 333 6.4 9.7 0.00 0.38 0.38 84 1009.7
20260507023816 17 352 4.8 6.4 0.00 0.38 0.38 84 1009.6
20260507023313 17 22 1.6 4.8 0.00 0.38 0.38 85 1009.4
20260507022810 17 44 3.2 9.7 0.00 0.38 0.38 85 1009.5
20260507022307 17 22 1.6 4.8 0.00 0.38 0.38 85 1009.5
20260507021803 17 335 8.0 9.7 0.00 0.38 0.38 85 1009.6
20260507021259 17 347 4.8 6.4 0.00 0.38 0.38 88 1009.8
20260507020757 17 36 1.6 4.8 0.00 0.38 0.38 88 1009.2
20260507020253 17 352 1.6 4.8 0.00 0.38 0.38 87 1009.6
20260507015751 18 53 1.6 4.8 0.00 0.38 0.38 86 1009.5
20260507015248 18 20 1.6 4.8 0.00 0.38 0.38 86 1009.5
20260507014745 18 0 3.2 3.2 0.00 0.38 0.38 86 1009.9
20260507014241 18 31 0.0 3.2 0.00 0.38 0.38 86 1009.7
20260507013738 18 19 0.0 1.6 0.00 0.38 0.38 85 1009.7
20260507013235 18 356 1.6 3.2 0.00 0.38 0.38 84 1009.6
20260507012732 18 19 1.6 1.6 0.00 0.38 0.38 84 1009.6
20260507012228 18 25 1.6 3.2 0.00 0.38 0.38 83 1010.0
20260507011726 18 291 1.6 4.8 0.00 0.38 0.38 82 1009.8
20260507011222 18 22 3.2 12.9 0.00 0.38 0.38 82 1009.5
20260507010721 18 247 3.2 3.2 0.00 0.38 0.38 82 1009.6
20260507010218 18 188 1.6 1.6 0.00 0.38 0.38 82 1009.3
20260507005715 18 211 3.2 4.8 0.00 0.38 0.38 81 1009.3
20260507005211 18 190 0.0 3.2 0.00 0.38 0.38 81 1009.3
20260507004708 18 210 4.8 6.4 0.00 0.38 0.38 81 1009.2
20260507004206 18 207 4.8 4.8 0.00 0.38 0.38 81 1009.0
20260507003702 18 186 1.6 4.8 0.00 0.38 0.38 81 1009.2
20260507003157 18 206 6.4 6.4 0.00 0.38 0.38 81 1008.9
20260507002653 18 167 0.0 1.6 0.00 0.38 0.38 82 1009.0
20260507002149 19 169 1.6 1.6 0.00 0.38 0.38 81 1008.7
20260507001646 19 208 4.8 4.8 0.00 0.38 0.38 80 1008.8
20260507001144 19 197 4.8 6.4 0.00 0.38 0.38 80 1008.9
20260507000640 19 200 3.2 3.2 0.00 0.38 0.38 80 1008.7
20260507000135 19 195 3.2 3.2 0.00 0.38 0.38 80 1008.6
20260506235633 19 166 1.6 1.6 0.00 0.38 0.38 79 1008.6
20260506235133 19 168 0.0 1.6 0.00 0.38 0.38 79 1008.4
20260506234631 19 174 0.0 0.0 0.00 0.38 0.38 79 1008.6
20260506234128 20 171 0.0 0.0 0.00 0.38 0.38 79 1008.4
20260506233625 20 169 0.0 0.0 0.00 0.38 0.38 78 1008.3
20260506233122 20 168 0.0 0.0 0.00 0.38 0.38 78 1008.4
20260506232618 20 167 1.6 1.6 0.00 0.38 0.38 77 1008.1
20260506232113 20 189 1.6 3.2 0.00 0.38 0.38 76 1008.2
20260506231611 20 198 1.6 4.8 0.00 0.38 0.38 76 1008.3
20260506231109 20 176 0.0 1.6 0.00 0.38 0.38 77 1008.2
20260506230605 20 176 1.6 3.2 0.00 0.38 0.38 76 1008.2
20260506225559 20 173 0.0 0.0 0.00 0.38 0.38 77 1008.4
20260506225055 20 173 0.0 1.6 0.00 0.38 0.38 77 1008.2
20260506224552 20 192 1.6 3.2 0.00 0.38 0.38 76 1008.5
20260506224049 20 202 1.6 4.8 0.00 0.38 0.38 76 1008.4
20260506223545 20 197 3.2 4.8 0.00 0.38 0.38 76 1008.5
20260506223042 20 210 0.0 0.0 0.00 0.38 0.38 76 1008.5
20260506222538 20 210 0.0 0.0 0.00 0.38 0.38 76 1008.1
20260506222035 20 209 1.6 4.8 0.00 0.38 0.38 75 1008.3
20260506221532 20 176 0.0 3.2 0.00 0.38 0.38 75 1008.5
20260506221030 20 228 4.8 4.8 0.00 0.38 0.38 74 1008.2
20260506220526 20 172 1.6 3.2 0.00 0.38 0.38 75 1008.1
20260506220022 20 170 0.0 1.6 0.00 0.38 0.38 75 1008.2
20260506215519 20 203 4.8 6.4 0.00 0.38 0.38 75 1008.3
20260506215014 20 198 3.2 4.8 0.00 0.38 0.38 74 1008.1
20260506214512 20 221 6.4 9.7 0.00 0.38 0.38 73 1008.2
20260506214009 20 201 4.8 6.4 0.00 0.38 0.38 73 1007.9
20260506213507 20 193 9.7 11.3 0.00 0.38 0.38 73 1007.9
20260506213004 20 190 1.6 4.8 0.00 0.38 0.38 73 1008.2
20260506212500 20 186 4.8 9.7 0.00 0.38 0.38 74 1007.9
20260506211954 20 197 3.2 4.8 0.00 0.38 0.38 73 1008.1
20260506211451 20 192 3.2 4.8 0.00 0.38 0.38 74 1007.9
20260506210948 20 194 3.2 6.4 0.00 0.38 0.38 75 1007.8
20260506210444 20 201 4.8 4.8 0.00 0.38 0.38 74 1007.8
20260506205942 20 204 3.2 3.2 0.00 0.38 0.38 75 1007.8
20260506205438 20 197 3.2 3.2 0.00 0.38 0.38 74 1007.7
20260506204934 20 176 4.8 4.8 0.00 0.38 0.38 73 1007.6
20260506204432 20 206 4.8 6.4 0.00 0.38 0.38 73 1007.9
20260506203929 20 197 1.6 4.8 0.00 0.38 0.38 73 1007.9
20260506203426 20 192 3.2 9.7 0.00 0.38 0.38 73 1007.9
20260506202923 20 203 8.0 9.7 0.00 0.38 0.38 71 1007.9
20260506202420 21 212 6.4 9.7 0.00 0.38 0.38 71 1007.9
20260506201917 21 225 6.4 11.3 0.00 0.38 0.38 70 1007.9
20260506201414 21 205 3.2 4.8 0.00 0.38 0.38 71 1007.7
20260506200911 21 188 4.8 9.7 0.00 0.38 0.38 71 1007.7
20260506200407 20 213 14.5 16.1 0.00 0.38 0.38 71 1007.7
20260506195903 20 274 8.0 17.7 0.00 0.38 0.38 72 1007.8
20260506195401 20 211 9.7 16.1 0.00 0.38 0.38 72 1007.8
20260506194857 20 196 9.7 14.5 0.00 0.38 0.38 71 1007.7
20260506194354 20 214 9.7 14.5 0.00 0.38 0.38 72 1007.9
20260506193852 21 207 8.0 20.9 0.00 0.38 0.38 71 1007.7
20260506193348 20 350 3.2 9.7 0.00 0.38 0.38 73 1007.8
20260506192844 20 224 12.9 17.7 0.00 0.38 0.38 73 1008.0
20260506192341 20 223 9.7 20.9 0.00 0.38 0.38 71 1008.1
20260506191838 20 212 8.0 14.5 0.00 0.38 0.38 74 1007.9
20260506191335 20 213 6.4 9.7 0.00 0.38 0.38 74 1008.0
20260506190832 20 194 11.3 12.9 0.00 0.38 0.38 73 1008.1
20260506190328 20 196 4.8 9.7 0.00 0.38 0.38 75 1008.2
20260506185825 19 249 8.0 16.1 0.00 0.38 0.38 77 1008.5
20260506185322 19 225 12.9 24.1 0.00 0.38 0.38 77 1008.4
20260506184819 19 226 4.8 16.1 0.00 0.38 0.38 77 1008.5
20260506184316 19 208 3.2 11.3 0.00 0.38 0.38 78 1008.4
20260506183814 18 220 8.0 12.9 0.00 0.38 0.38 78 1008.6
20260506183309 18 230 9.7 12.9 0.00 0.38 0.38 80 1008.7
20260506182806 18 190 6.4 14.5 0.00 0.38 0.38 79 1008.5
20260506182306 18 220 12.9 16.1 0.00 0.38 0.38 79 1008.3
20260506181801 18 220 8.0 12.9 0.00 0.38 0.38 81 1008.5
20260506181259 18 269 4.8 11.3 0.00 0.38 0.38 82 1008.7
20260506180755 18 209 19.3 24.1 0.00 0.38 0.38 81 1008.7
20260506180251 18 213 14.5 16.1 0.00 0.38 0.38 82 1008.9
20260506175748 18 199 8.0 16.1 0.00 0.38 0.38 82 1008.7
20260506175245 17 216 6.4 14.5 0.00 0.38 0.38 84 1008.7
20260506174742 17 197 6.4 14.5 0.00 0.38 0.38 85 1008.7
20260506174239 17 214 6.4 9.7 0.00 0.38 0.38 85 1008.8
20260506173737 17 252 6.4 16.1 0.00 0.38 0.38 85 1008.7
20260506173233 17 212 8.0 12.9 0.00 0.38 0.38 86 1008.7
20260506172730 17 177 14.5 17.7 0.00 0.38 0.38 87 1008.7
20260506172227 16 294 9.7 14.5 0.00 0.38 0.38 88 1008.9
20260506171725 16 214 9.7 12.9 0.00 0.38 0.38 88 1008.9
20260506171222 16 212 14.5 16.1 0.00 0.38 0.38 89 1008.9
20260506170719 16 247 6.4 12.9 0.00 0.38 0.38 89 1008.7
20260506170216 16 213 9.7 17.7 0.00 0.38 0.38 89 1008.9
20260506165714 16 203 6.4 12.9 0.00 0.38 0.38 89 1009.2
20260506165211 16 207 9.7 11.3 0.00 0.38 0.38 89 1009.0
20260506164708 16 227 8.0 20.9 0.00 0.38 0.38 89 1009.3
20260506164205 16 215 9.7 16.1 0.00 0.38 0.38 89 1009.2
20260506163701 16 215 12.9 14.5 0.00 0.38 0.38 90 1009.0
20260506163156 16 188 9.7 12.9 0.00 0.38 0.38 91 1008.8
20260506162653 16 211 11.3 20.9 0.00 0.38 0.38 90 1009.2
20260506162150 16 193 11.3 22.5 0.00 0.38 0.38 91 1009.5
20260506161647 16 180 11.3 16.1 0.00 0.38 0.38 91 1009.6
20260506161144 16 209 6.4 12.9 0.00 0.38 0.38 92 1009.5
20260506160642 16 170 14.5 16.1 0.00 0.38 0.38 92 1009.4
20260506160139 16 188 4.8 11.3 0.00 0.38 0.38 92 1009.4
20260506155637 16 179 11.3 16.1 0.00 0.38 0.38 92 1009.6
20260506155133 16 199 8.0 14.5 0.13 0.38 0.38 92 1009.4
20260506153230 15 174 9.7 14.5 0.00 0.36 0.36 92 1009.6
20260506152727 15 167 9.7 16.1 0.00 0.36 0.36 92 1009.6
20260506152224 15 175 4.8 11.3 0.00 0.36 0.36 92 1009.8
20260506151724 15 204 9.7 16.1 0.18 0.36 0.36 92 1010.0
20260506151219 15 131 12.9 12.9 0.18 0.36 0.36 92 1010.0
20260506150716 16 179 6.4 9.7 0.30 0.33 0.33 92 1010.2
20260506150213 16 189 9.7 16.1 0.30 0.33 0.33 91 1010.2
20260506145710 16 215 6.4 9.7 0.00 0.28 0.28 91 1010.1
20260506145206 16 165 6.4 14.5 0.18 0.28 0.28 91 1010.2
20260506144704 16 207 9.7 17.7 0.18 0.28 0.28 90 1010.1
20260506144201 16 192 8.0 11.3 0.13 0.25 0.25 91 1010.2
20260506143658 16 202 12.9 20.9 0.30 0.25 0.25 90 1010.1
20260506143156 16 218 6.4 11.3 0.18 0.23 0.23 91 1009.9
20260506142655 16 158 6.4 11.3 0.18 0.23 0.23 90 1009.9
20260506142152 16 176 8.0 17.7 0.00 0.20 0.20 90 1009.9
20260506141649 16 190 8.0 11.3 0.13 0.20 0.20 91 1010.0
20260506141148 16 176 6.4 12.9 0.30 0.20 0.20 90 1009.9
20260506140645 16 179 4.8 6.4 0.18 0.18 0.18 89 1010.3
20260506140142 16 185 9.7 14.5 0.13 0.15 0.15 89 1010.3
20260506135639 16 202 9.7 14.5 0.30 0.15 0.15 88 1010.6
20260506135135 16 199 8.0 14.5 0.30 0.13 0.13 88 1010.6
20260506134632 16 200 6.4 6.4 0.30 0.10 0.10 87 1010.6
20260506134127 16 181 4.8 11.3 0.30 0.08 0.08 85 1010.4
20260506133625 16 206 8.0 14.5 0.13 0.05 0.05 85 1010.4
20260506133122 16 205 6.4 12.9 0.00 0.03 0.03 84 1010.5
20260506132619 16 199 6.4 9.7 0.00 0.03 0.03 83 1010.4
20260506132116 16 177 6.4 9.7 0.18 0.03 0.03 83 1010.4
20260506131613 17 201 8.0 14.5 0.18 0.03 0.03 80 1010.1
20260506131109 17 234 9.7 14.5 0.00 0.00 0.00 79 1010.1
20260506130607 17 139 4.8 9.7 0.00 0.00 0.00 79 1009.8
20260506130104 17 175 6.4 12.9 0.00 0.00 0.00 78 1010.0
20260506125602 17 183 9.7 11.3 0.00 0.00 0.00 77 1009.8
20260506125100 17 195 6.4 9.7 0.00 0.00 0.00 77 1010.1
20260506124557 17 203 6.4 6.4 0.00 0.00 0.00 78 1009.9
20260506124055 17 196 9.7 11.3 0.00 0.00 0.00 76 1010.1
20260506123552 17 206 6.4 11.3 0.00 0.00 0.00 78 1010.3
20260506123051 17 206 4.8 6.4 0.00 0.00 0.00 77 1010.5
20260506122547 17 199 4.8 12.9 0.00 0.00 0.00 76 1010.4
20260506122045 17 206 6.4 11.3 0.00 0.00 0.00 75 1010.7
20260506121542 17 246 9.7 12.9 0.00 0.00 0.00 74 1010.4
20260506121038 17 220 6.4 17.7 0.00 0.00 0.00 72 1010.5
20260506120536 18 216 9.7 11.3 0.00 0.00 0.00 71 1010.7
20260506120034 18 190 9.7 11.3 0.00 0.00 0.00 71 1010.4
20260506115531 18 218 4.8 9.7 0.00 0.00 0.00 71 1010.4
20260506115030 18 230 6.4 16.1 0.00 0.00 0.00 71 1010.3
20260506114527 18 217 8.0 14.5 0.00 0.00 0.00 71 1010.0
20260506114025 18 178 8.0 20.9 0.00 0.00 0.00 70 1010.0
20260506113523 18 201 4.8 14.5 0.00 0.00 0.00 70 1010.1
20260506113020 18 170 6.4 9.7 0.00 0.00 0.00 71 1010.0
20260506112516 18 220 9.7 11.3 0.00 0.00 0.00 71 1009.8
20260506112014 18 190 6.4 12.9 0.00 0.00 0.00 71 1009.8
20260506111512 18 179 12.9 16.1 0.00 0.00 0.00 71 1009.8
20260506111008 18 175 4.8 11.3 0.00 0.00 0.00 72 1009.9
20260506110507 17 201 11.3 12.9 0.00 0.00 0.00 72 1009.7
20260506110003 17 184 8.0 12.9 0.00 0.00 0.00 72 1009.7
20260506105459 18 192 4.8 11.3 0.00 0.00 0.00 71 1009.8
20260506104956 18 194 9.7 11.3 0.00 0.00 0.00 71 1009.6
20260506104454 17 219 9.7 16.1 0.00 0.00 0.00 72 1009.6
20260506103953 17 202 9.7 11.3 0.00 0.00 0.00 72 1009.8
20260506103449 17 172 11.3 14.5 0.00 0.00 0.00 73 1009.5
20260506102946 17 181 6.4 17.7 0.00 0.00 0.00 73 1009.5
20260506102444 17 172 6.4 11.3 0.00 0.00 0.00 73 1009.6
20260506101941 17 181 9.7 14.5 0.00 0.00 0.00 73 1009.6
20260506101438 17 177 6.4 6.4 0.00 0.00 0.00 73 1009.5
20260506100935 17 185 4.8 11.3 0.00 0.00 0.00 72 1009.6
20260506100433 17 187 6.4 11.3 0.00 0.00 0.00 72 1009.7
20260506095931 17 168 4.8 11.3 0.00 0.00 0.00 72 1009.6
20260506095429 17 193 6.4 14.5 0.00 0.00 0.00 71 1009.6
20260506094925 17 185 9.7 12.9 0.00 0.00 0.00 72 1009.4
20260506094424 17 180 6.4 11.3 0.00 0.00 0.00 71 1009.4
20260506093921 17 190 11.3 16.1 0.00 0.00 0.00 71 1009.4
20260506093419 17 198 14.5 16.1 0.00 0.00 0.00 70 1009.4
20260506092916 17 169 8.0 12.9 0.00 0.00 0.00 70 1009.7
20260506092414 18 170 6.4 11.3 0.00 0.00 0.00 70 1009.6
20260506091910 18 186 4.8 11.3 0.00 0.00 0.00 69 1009.5
20260506091409 18 207 6.4 14.5 0.00 0.00 0.00 69 1009.4
20260506090905 18 179 9.7 11.3 0.00 0.00 0.00 68 1009.5
20260506090403 18 180 11.3 16.1 0.00 0.00 0.00 68 1009.6
20260506085900 18 202 6.4 6.4 0.00 0.00 0.00 69 1009.9
20260506085356 18 182 9.7 14.5 0.00 0.00 0.00 68 1009.6
20260506084852 18 173 3.2 9.7 0.00 0.00 0.00 67 1009.8
20260506084349 18 178 6.4 9.7 0.00 0.00 0.00 67 1009.8
20260506083846 18 203 6.4 14.5 0.00 0.00 0.00 66 1009.8
20260506083344 18 175 8.0 9.7 0.00 0.00 0.00 67 1009.8
20260506082841 18 190 8.0 11.3 0.00 0.00 0.00 67 1009.8
20260506082337 18 166 3.2 17.7 0.00 0.00 0.00 67 1009.6
20260506081833 17 182 4.8 6.4 0.00 0.00 0.00 69 1009.4
20260506081332 18 175 3.2 4.8 0.00 0.00 0.00 70 1009.6
20260506080829 18 163 1.6 6.4 0.00 0.00 0.00 67 1009.5
20260506080325 18 166 3.2 6.4 0.00 0.00 0.00 66 1009.4
20260506073310 20 202 12.9 14.5 0.00 0.00 0.00 59 1009.7
20260506072806 20 150 9.7 16.1 0.00 0.00 0.00 59 1009.7
20260506072305 20 178 8.0 12.9 0.00 0.00 0.00 58 1009.9
20260506071801 20 214 12.9 22.5 0.00 0.00 0.00 58 1009.9
20260506071259 20 207 8.0 20.9 0.00 0.00 0.00 57 1010.0
20260506070756 20 233 9.7 16.1 0.00 0.00 0.00 58 1009.8
20260506070253 20 140 6.4 6.4 0.00 0.00 0.00 58 1009.9
20260506062230 21 185 14.5 25.7 0.00 0.00 0.00 53 1010.2
20260506061726 21 215 11.3 22.5 0.00 0.00 0.00 53 1010.2
20260506061224 21 218 9.7 22.5 0.00 0.00 0.00 53 1010.2
20260506060722 21 213 14.5 16.1 0.00 0.00 0.00 53 1010.0
20260506060218 21 175 8.0 16.1 0.00 0.00 0.00 52 1010.3